Location: Little Baddow
(51.7333°N, 0.5667°E)
Time: 23:32:48
(UTC+00:00)

Cosmos 2237 Rocket - Visible Passes

Search period start: 15 February 2026 00:00
Search period end: 25 February 2026 00:00
Orbit: 834 x 849 km, 71.0° (Epoch: 15 February)

Date Brightness Start Highest point End Pass type
(mag) Time Alt. Az. Time Alt. Az. Time Alt. Az.
15 Feb 2.4 17:58:39 10° NNW 18:04:21 82° WSW 18:10:03 10° SSE visible
15 Feb 5.0 19:44:13 10° WNW 19:47:31 16° W 19:50:49 10° SW visible
16 Feb 2.4 17:43:25 10° NNW 17:49:09 85° WSW 17:54:51 10° SSE visible
16 Feb 5.1 19:28:53 10° WNW 19:32:21 17° W 19:35:49 10° SW visible
17 Feb 5.1 19:13:33 10° WNW 19:17:12 18° W 19:20:49 10° SW visible
18 Feb 5.1 18:58:14 10° WNW 19:02:02 19° W 19:05:49 10° SW visible
19 Feb 5.1 18:42:57 10° NW 18:46:52 19° W 18:50:48 10° SW visible
20 Feb 5.9 06:15:30 10° ESE 06:17:00 11° E 06:18:29 10° ENE visible
20 Feb 5.1 18:27:38 10° NW 18:31:42 20° W 18:35:46 10° SSW visible
21 Feb 6.0 06:00:57 10° ESE 06:01:50 10° E 06:02:43 10° E visible
21 Feb 5.1 18:12:21 10° NW 18:16:33 21° W 18:20:43 10° SSW visible
22 Feb 5.2 17:57:05 10° NW 18:01:23 22° WSW 18:05:40 10° SSW visible
